www.pogodaiklimat.ru

Погода и климат >> Архив погоды >> Россия >> Магаданская область >> Мыс Братьев


ПОГОДА на Мысе Братьев

  • Прогноз погоды на Мысе Братьев
  • Монитор погоды на Мысе Братьев
  • Климат города

АРХИВ ПОГОДЫ на Мысе Братьев

Время (UTC), дата Ветер
(напр.,м/с)
 
Видим.   Явления Облачность Т
(С)
Тd
(С)
f
(%)
Тe
(С)
Тes
(С)
Комфортность P
(гПа)
Po
(гПа)
Тmin
(С)
Tmax
(С)
R
(мм)
R24
(мм)
S
(см)
00 20.07 В 3 500 м туман ясно +10.7 +9.5 92 +9 +18 1013.9 1012.3
03 20.07 ЮВ 2 10 км дымка 10/0
[As op]
+10.6 +8.9 89 +9 +12 1014.1 1012.5
06 20.07 ЮЗ 2 500 м туман ?/? +9.2 +8.8 97 +7 +7 1014.7 1013.1
09 20.07 ЮВ 2 500 м туман ?/? +8.7 +8.5 99 +7 +7 1014.9 1013.3 +12.1
12 20.07 ЮВ 1 500 м туман ?/? +8.2 +7.9 98 +7 +7 1015.4 1013.8
15 20.07 В 2 200 м туман ?/? +8.4 +8.2 99 +6 +6 1014.4 1012.8
18 20.07 ЮВ 3 500 м туман ?/? +8.2 +8.1 99 +5 +5 1014.0 1012.4
21 20.07 В 1 2000 м дымка {туман} 10/10 300 м
[St]
+8.0 +7.8 99 +7 +7 1013.7 1012.1 +7.9
00 21.07 ЮВ 2 4000 м в посл. час ливневой дождь {туман} 10/10 300 м
[Cb cap]
+8.1 +7.6 97 +6 +6 1013.3 1011.7
03 21.07 В 3 4000 м дымка 10/10 300 м
[St]
+8.3 +8.0 98 +5 +5 1012.8 1011.2
06 21.07 ЮВ 4 4000 м дымка 10/10 300 м
[St]
+8.5 +8.3 99 +5 +5 1012.1 1010.5
09 21.07 В 2 10 км слабый ливневой дождь 10/10 300 м
[Cb cap]
+8.1 +8.0 99 +6 +6 1011.5 1009.9 +8.6 3
12 21.07 ЮВ 5 10 км дымка {ливн. осадки} 10/10 300 м
[St]
+8.5 +8.3 99 +5 +5 1010.7 1009.1
15 21.07 СЗ 2 4000 м дымка 10/10 300 м
[St]
+9.9 +9.7 99 +8 +8 1008.9 1007.4
18 21.07 СВ 3 4000 м слабая морось 10/10 300 м
[St]
+10.4 +9.9 97 +8 +8 1006.4 1004.8
21 21.07 СВ 4 10 км в посл. час морось 10/10 300 м
[Cb cap]
+11.3 +10.4 94 +9 +9 1004.0 1002.4 +8.1 2
00 22.07 СВ 2 10 км дымка {морось} 10/10 300 м
[Cb cap]
+12.3 +11.1 92 +11 +11 1002.0 1000.4
03 22.07 С 4 10 км дымка {ливн. осадки} 10/10 300 м
[Cb cap]
+13.2 +11.7 91 +11 +11 1000.1 998.6
06 22.07 ЮЗ 3 50 км {ливн. осадки} 9/9 300 м
[Cb cap]
+14.2 +12.4 89 +13 +14 999.7 998.2
09 22.07 З 3 50 км 9/9 600 м
[Cb cap]
+13.6 +12.0 90 +12 +12 1000.2 998.7 +14.5 0.9
12 22.07 ЮЗ 4 50 км 9/9 600 м
[Cb cap]
+13.5 +11.1 85 +12 +12 1001.1 999.6
15 22.07 штиль 0 50 км 8/8 300 м
[Cb cap]
+10.6 +10.0 96 +10 +10 1001.1 999.5
18 22.07 СВ 1 50 км 9/6 300 м
[Cb cap Ac trans Cc]
+9.9 +9.5 97 +9 +9 1001.4 999.8
21 22.07 Ю 1 50 км 8/3 1000 м
[Sc Ac trans]
+12.9 +11.4 91 +13 +15 1001.9 1000.4 +8.9
00 23.07 ЮЗ 5 50 км 4/1 1000 м
[Sc Ci fib]
+16.3 +12.4 78 +15 +20 1002.7 1001.1
03 23.07 ЮЗ 10-12
{12}
50 км 1/0
[Ac lent]
+13.3 +10.2 81 +10 +11 1003.0 1001.5
06 23.07 ЮЗ 10-13
{14}
10 км дымка 1/0
[Ci]
+13.2 +10.1 81 +10 +10 1003.6 1002.1
09 23.07 ЮЗ 9-13
{15}
4000 м дымка 8/0
[Ci]
+9.5 +8.6 94 +5 +5 1004.8 1003.2 +16.3
12 23.07 СЗ 1
{13}
2000 м дымка 6/1 200 м
[St Ci fib]
+8.6 +8.3 98 +8 +8 1007.3 1005.7
15 23.07 С 2 200 м туман ?/? +7.9 +7.7 99 +6 +6 1007.6 1006.1
18 23.07 штиль 0 н/о н/о +7.0 +6.9 99 +6 +6 1008.6 1007.0
21 23.07 З 1 200 м туман ?/? +8.6 +8.4 99 +8 +8 1009.6 1008.0 +6.6
00 24.07 ЮВ 2 4000 м туман ясно +8.0 +7.5 97 +6 +17 опасность
простуды
1010.4 1008.8
03 24.07 Ю 5 4000 м дымка ясно +8.9 +8.2 95 +5 +12 1010.6 1009.0
06 24.07 СВ 3 4000 м дымка ясно +8.2 +7.6 96 +5 +10 1011.0 1009.4
09 24.07 С 3 4000 м дымка ясно +7.6 +7.3 98 +5 +5 1011.3 1009.8 +10.8
12 24.07 С 2 500 м туман ?/? +6.2 +6.0 99 +4 +4 1011.8 1010.2
15 24.07 штиль 0 500 м туман ?/? +6.1 +5.9 99 +5 +5 1012.0 1010.4
18 24.07 СЗ 2 500 м туман 8/0
[Ci fib]
+6.6 +6.5 99 +4 +4 1011.9 1010.3
21 24.07 СВ 4 1000 м дымка {туман} ?/? +11.8 +10.8 94 +10 +10 1011.5 1010.0 +6.0
00 25.07 СВ 10-13
{14}
10 км дымка {туман} 10/0
[Ac As]
+10.5 +8.9 90 +6 +6 1010.6 1009.0 +3.9
03 25.07 СВ 6
{14}
50 км 10/0
[Ac As]
+12.4 +9.8 84 +10 +11 1008.4 1006.9
06 25.07 СВ 6-10
{13}
10 км слабый дождь 10/0
[As op]
+11.3 +9.7 90 +8 +9 1006.6 1005.0
09 25.07 СВ 7-12
{14}
1000 м дымка {дождь} 10/0
[As op]
+12.2 +10.2 88 +9 +9 1004.4 1002.9 +13.3
12 25.07 В 4
{14}
10 км слабый ливневой дождь 10/10 600 м
[Cb cap]
+8.3 +7.9 97 +5 +5 1004.7 1003.2
15 25.07 ЮВ 3 10 км дымка {ливн. осадки} 10/10 600 м
[Cb cap]
+7.1 +6.9 99 +4 +4 1004.5 1002.9
18 25.07 В 1 4000 м дымка {ливн. осадки} 10/10 600 м
[Cb cap]
+7.8 +7.6 99 +7 +7 1004.9 1003.4
21 25.07 СВ 1 10 км дымка 10/10 600 м
[Cb cap]
+8.5 +8.4 99 +8 +8 1006.6 1005.0 +6.7 1
00 26.07 СВ 3 4000 м дымка 10/10 600 м
[Cb cap]
+9.6 +9.4 99 +7 +7 1006.4 1004.8
03 26.07 СВ 1 4000 м дымка 10/10 600 м
[Cb cap]
+8.9 +8.7 99 +8 +8 1006.7 1005.2
06 26.07 СВ 1 4000 м дымка 10/10 600 м
[Cb cap]
+9.0 +8.8 99 +8 +8 1006.8 1005.3
09 26.07 штиль 0 50 км дымка 10/10 600 м
[Cb cap]
+8.9 +8.8 99 +8 +8 1006.7 1005.2 +10.0
12 26.07 СВ 2 4000 м дымка 10/10 600 м
[Cb cap]
+8.4 +8.2 99 +6 +6 1006.3 1004.7
15 26.07 З 1 1000 м дымка 10/10 600 м
[Cb cap]
+9.4 +9.3 99 +9 +9 1004.2 1002.6
18 26.07 ЮЗ 2 1000 м слабый ливневой дождь 10/10 600 м
[Cb cap]
+10.4 +10.2 99 +9 +9 1002.7 1001.1
21 26.07 ЮЗ 3 1000 м в посл. час ливневой дождь 10/10 600 м
[Cb cap]
+9.7 +9.5 99 +7 +7 1002.8 1001.2 +8.4 3

 

Местоположение метеостанции Мыс Братьев (Магаданская область, Россия): широта 59.10 долгота 153.30 высота над уровнем моря 13 м.

В архиве по умолчанию представлена погода на Мысе Братьев за последнюю неделю. Архивные данные за месяц целиком и за предыдущие месяцы, начиная с января 2011 года, Вы можете получить, выбрав интересующий диапазон дат из раскрывающегося списка и нажав кнопку "Ввод!".

Внимание! Время в таблицах - всемирное. Для получения местного времени необходимо прибавить поправку, которая на Мысе Братьев равна 11 ч.

Смотрите также архив погоды в соседних городах и на ближайших метеорологических станциях:

Погода в Брохово (Магаданская область, Россия) (80 км)
Погода на Мысе Алевина (Магаданская область, Россия) (119 км)
Погода в Оле (Магаданская область, Россия) (130 км)
Погода в Магадане (Магаданская область, Россия) (156 км)
Погода в Палатке (Магаданская область, Россия) (175 км)
Погода в Армани (Магаданская область, Россия) (192 км)
Погода в Мадауне (Магаданская область, Россия) (221 км)
Погода в Шелихова (Магаданская область, Россия) (228 км)
Погода в Талае (Магаданская область, Россия) (232 км)
Погода на Остров Спафарьева (Магаданская область, Россия) (245 км)

Пояснения к столбцам:

Ветер - указаны скорость ветра в м/с - средняя за 10 мин, порывы в срок и между сроками (в фигурных скобках) и направление, откуда дует ветер: С - северный, СВ - северо-восточный, В - восточный, ЮВ - юго-восточный, Ю - южный, ЮЗ - юго-западный, З - западный, СЗ - северо-западный.
Видимость - горизонтальная дальность видимости в метрах или километрах. При видимости от 1 до 10 км при отсутствии осадков обычно наблюдается дымка, при ухудшении видимости до 1 км и менее - туман. В сухую погоду видимость может ухудшаться дымом, пылью или мглою.
Явления - указаны атмосферные явления, наблюдавшиеся в срок или в последний час перед сроком; фигурными скобками обозначены явления, наблюдавшиеся между сроками (за 1-3 часа до срока); квадратными скобками обозначены град или гололедные отложения с указанием их диаметра в мм.
Облачность - указаны через наклонную черту общая и нижняя облачность в баллах и высота нижней границы облаков в метрах; квадратными скобками обозначены формы облаков: Ci - перистые, Cs - перисто-слоистые, Cc - перисто-кучевые, Ac - высококучевые, As - высокослоистые, Sc - слоисто-кучевые, Ns - слоисто-дождевые, Cu - кучевые, Cb - кучево-дождевые. Подробнее классификацию облаков см. в Атласе облаков (PDF).
T - Температура воздуха - температура, измеренная на высоте 2 м над землей.
Td - Температура точки росы - температура, при понижении до которой содержащийся в воздухе водяной пар достигнет насыщения.
f - Относительная влажность воздуха - влажноcть воздуха, измеренная на высоте 2 м над землей.
Te - Эффективная температура - температура, которую ощущает одетый по сезону человек в тени. Характеристика душности погоды. При расчете учитывается влияние влажности воздуха и скорости ветра на теплоощущения человека.
Tes - Эффективная температура на солнце - температура, которую ощущает человек, с поправкой на солнечный нагрев. Характеристика знойности погоды. Зависит от высоты солнца над горизонтом, облачности и скорости ветра. Ночью, в пасмурную погоду, а также при ветре 12 м/с и более поправка равна нулю.
P - Атмосферное давление - приведенное к уровню моря атмосферное давление.
Po - Атмосферное давление - измеренное на уровне метеостанции атмосферное давление.
Tmin - Минимальная температура - минимум температуры воздуха на высоте 2 м над землей.
Tmax - Максимальная температура - максимум температуры воздуха на высоте 2 м над землей.
R - Количество осадков - Количество выпавших осадков за период времени, мм. При наведении курсора мыши на число - период времени, за который выпало указанное количество осадков.
R24 - Количество осадков - Количество выпавших осадков за 24 часа, мм.
S - Снежный покров - Высота снежного покрова, см. При наведении курсора мыши на число - состояние снежного покрова и степень покрытия местности в баллах.